Find Starlink 2396

NORAD ID: 47815 Int'l Des: 2021-018 Owner: SPXS Country: US Constellation: starlink operational
LEOCIRCULAR

現在のビュー

3D地球を読み込み中...

About Starlink 2396

Starlink 2396 (NORAD 47815) is a starlink constellation satellite (v1.0) launched Mar 11, 2021 by SPXS of US. It operates in LEO, CIRCULAR orbit with a mass of 260.00 kg.

Starlink 2396について

説明を読み込み中...

次回通過

Passes for default location (London). Set your location on the main map for personalized predictions.

高度履歴

Loading altitude history...

軌道要素

1 47815U 21018AE 26167.14636198 .00001278 00000-0 52956-4 0 9996
2 47815 53.1603 144.6659 0001289 86.1333 273.9816 15.31691965291806
Epoch: Jun 16, 2026 • Age: 6 hours

現在のステータス

高度 471.1 km
速度 7.63 km/s
衛星直下点 3.92°N, 94.72°E
打ち上げ日 Mar 11, 2021
運用期間 5.2 years
タイプ internet

技術仕様

分類 Payload
質量 260.00 kg
乾燥質量 248.00 kg
総質量 260.00 kg
長さ 0.20 m
直径 2.80 m
スパン 9.00 m
形状 Box + pan
製造者 SPXS
バスタイプ Starlink
フェーズステータス In Orbit
所有者/国 SPXS/US

Most Searched